This is the latest recevied weather packets stored in our database for station/object KG7QQL. If no packets are shown the sender has not sent any weather packets the latest 10 day(s).
| Time | Temp. | Humidity | Pressure | Rain* | Wind** | Luminosity | Snow |
|---|---|---|---|---|---|---|---|
| 1777673986 | 18.89° C | 62% | - | 0 mm | - | - | - |
| 1777673682 | 18.89° C | 62% | - | 0 mm | - | - | - |
| 1777673380 | 19.44° C | 61% | - | 0 mm | - | - | - |
| 1777673078 | 18.89° C | 64% | - | 0 mm | - | - | - |
| 1777672773 | 18.89° C | 64% | - | 0 mm | - | - | - |
| 1777672471 | 18.89° C | 64% | - | 0 mm | - | - | - |
| 1777672166 | 19.44° C | 62% | - | 0 mm | - | - | - |
| 1777671862 | 18.89° C | 62% | - | 0 mm | - | - | - |
| 1777671557 | 18.89° C | 62% | - | 0 mm | - | - | - |
| 1777671255 | 18.89° C | 61% | - | 0 mm | - | - | - |
| 1777670950 | 18.89° C | 61% | - | 0 mm | - | - | - |
| 1777670647 | 18.33° C | 62% | - | 0 mm | - | - | - |
| 1777670343 | 18.33° C | 64% | - | 0 mm | - | - | - |
| 1777670041 | 18.89° C | 63% | - | 0 mm | - | - | - |
| 1777669738 | 18.33° C | 65% | - | 0 mm | - | - | - |
| 1777669435 | 18.33° C | 65% | - | 0 mm | - | - | - |
| 1777669131 | 18.33° C | 63% | - | 0 mm | - | - | - |
| 1777668828 | 19.44° C | 62% | - | 0 mm | - | - | - |
| 1777668525 | 19.44° C | 60% | - | 0 mm | - | - | - |
| 1777668221 | 20° C | 61% | - | 0 mm | - | - | - |
| 1777667918 | 19.44° C | 61% | - | 0 mm | - | - | - |
| 1777667615 | 18.89° C | 61% | - | 0 mm | - | - | - |
| 1777667312 | 18.89° C | 63% | - | 0 mm | - | - | - |
| 1777667009 | 18.89° C | 62% | - | 0 mm | - | - | - |
| 1777666706 | 18.89° C | 63% | - | 0 mm | - | - | - |
* Rain latest hour (hover to see other rain measurements)
** Current wind speed in m/s (hover to see current wind gust speed)